EW6379 Weather Reports


Display with metric or nautical units.
time (UTC)temp
F
wind
direction
speed
MPH
gust
MPH
rain 1hr
in
rain 24hr
in
rain mn
in
humidity
%
barometer
mb
20260510050022 65 3.0 8.0 0.00 0.00 0.00 37 1014.0
20260510044522 64 6.0 8.0 0.00 0.00 0.00 39 1014.0
20260510043024 65 3.0 8.0 0.00 0.00 0.00 38 1014.0
20260510041520 66 4.0 9.0 0.00 0.00 0.00 38 1013.7
20260510040021 67 4.0 8.0 0.00 0.00 0.00 36 1013.6
20260510034520 67 5.0 9.0 0.00 0.00 0.00 35 1013.5
20260510033020 68 5.0 8.0 0.00 0.00 0.00 34 1013.2
20260510031519 69 5.0 8.0 0.00 0.00 0.00 32 1013.1
20260510030018 70 3.0 6.0 0.00 0.00 0.00 29 1013.0
20260510024516 71 5.0 6.0 0.00 0.00 0.00 28 1013.2
20260510023015 72 4.0 7.0 0.00 0.00 0.00 28 1013.2
20260510021520 73 4.0 5.0 0.00 0.00 0.00 28 1013.2
20260510020013 73 3.0 6.0 0.00 0.00 0.00 29 1013.3
20260510014515 73 2.0 9.0 0.00 0.00 0.00 28 1013.4
20260510013013 74 2.0 3.0 0.00 0.00 0.00 28 1013.5
20260510011509 75 0.0 5.0 0.00 0.00 0.00 26 1013.6
20260510010007 76 0.0 4.0 0.00 0.00 0.00 27 1013.7
20260510004504 75 1.0 5.0 0.00 0.00 0.00 27 1013.8
20260510003003 76 1.0 4.0 0.00 0.00 0.00 26 1013.7
20260510001505 76 1.0 7.0 0.00 0.00 0.00 27 1013.9
20260509234558 76 1.0 7.0 0.00 0.00 0.00 27 1014.1
20260509233056 76 2.0 7.0 0.00 0.00 0.00 26 1014.2
20260509231605 76 0.0 7.0 0.00 0.00 0.00 26 1014.4
20260509230052 76 1.0 4.0 0.00 0.00 0.00 27 1014.5
20260509224550 77 0.0 4.0 0.00 0.00 0.00 26 1014.8
20260509223051 76 1.0 5.0 0.00 0.00 0.00 27 1015.0
20260509221547 76 0.0 4.0 0.00 0.00 0.00 26 1015.3
20260509220045 76 3.0 8.0 0.00 0.00 0.00 28 1015.5
20260509214541 75 3.0 6.0 0.00 0.00 0.00 28 1015.7
20260509213038 74 1.0 8.0 0.00 0.00 0.00 29 1015.9
20260509211536 74 3.0 9.0 0.00 0.00 0.00 29 1016.0
20260509210047 74 2.0 7.0 0.00 0.00 0.00 29 1016.1
20260509204534 74 3.0 8.0 0.00 0.00 0.00 27 1016.3
20260509203034 73 1.0 5.0 0.00 0.00 0.00 29 1016.2
20260509201530 72 1.0 7.0 0.00 0.00 0.00 28 1016.4
20260509200030 71 1.0 8.0 0.00 0.00 0.00 32 1016.6
20260509194528 71 4.0 8.0 0.00 0.00 0.00 32 1016.7
20260509193026 70 2.0 5.0 0.00 0.00 0.00 32 1016.8
20260509191527 71 1.0 9.0 0.00 0.00 0.00 32 1017.0
20260509190022 69 3.0 8.0 0.00 0.00 0.00 32 1017.1
20260509184532 68 4.0 12.0 0.00 0.00 0.00 33 1017.2
20260509183018 67 3.0 9.0 0.00 0.00 0.00 34 1017.3
20260509181513 66 6.0 10.0 0.00 0.00 0.00 34 1017.4
20260509180013 65 5.0 12.0 0.00 0.00 0.00 36 1017.5
20260509174512 65 5.0 7.0 0.00 0.00 0.00 35 1017.4
20260509173026 64 1.0 9.0 0.00 0.00 0.00 37 1017.4
20260509171520 63 0.0 6.0 0.00 0.00 0.00 38 1017.4
20260509170013 64 3.0 7.0 0.00 0.00 0.00 37 1017.8
20260509164504 63 4.0 8.0 0.00 0.00 0.00 40 1017.8
20260509163002 62 4.0 10.0 0.00 0.00 0.00 39 1018.0
20260509161502 62 0.0 5.0 0.00 0.00 0.00 39 1018.1
20260509160001 62 4.0 9.0 0.00 0.00 0.00 39 1018.1
20260509154600 61 0.0 6.0 0.00 0.00 0.00 41 1018.1
20260509153057 59 1.0 5.0 0.00 0.00 0.00 40 1018.0
20260509151616 59 2.0 5.0 0.00 0.00 0.00 40 1017.8
20260509150056 58 1.0 4.0 0.00 0.00 0.00 41 1017.9
20260509144554 59 3.0 5.0 0.00 0.00 0.00 42 1017.8
20260509143104 56 0.0 3.0 0.00 0.00 0.00 47 1017.8
20260509141554 55 2.0 4.0 0.00 0.00 0.00 46 1017.6
20260509140050 55 1.0 5.0 0.00 0.00 0.00 47 1017.6
20260509134548 57 0.0 3.0 0.00 0.00 0.00 43 1017.4
20260509133046 56 0.0 3.0 0.00 0.00 0.00 43 1017.1
20260509131556 55 0.0 0.0 0.00 0.00 0.00 44 1016.9
20260509130105 54 0.0 3.0 0.00 0.00 0.00 46 1016.7
20260509124542 53 1.0 3.0 0.00 0.00 0.00 48 1016.7
20260509123112 53 0.0 3.0 0.00 0.00 0.00 48 1016.6
20260509121539 55 4.0 10.0 0.00 0.00 0.00 44 1016.4
20260509120045 55 4.0 8.0 0.00 0.00 0.00 44 1016.3
20260509114531 56 6.0 11.0 0.00 0.00 0.00 43 1016.4
20260509113031 56 5.0 11.0 0.00 0.00 0.00 43 1016.6
20260509111527 57 8.0 13.0 0.00 0.00 0.00 42 1016.5
20260509110028 57 4.0 11.0 0.00 0.00 0.00 42 1016.6
20260509104524 57 8.0 14.0 0.00 0.00 0.00 42 1016.6
20260509103021 57 6.0 12.0 0.00 0.00 0.00 41 1016.5
20260509101529 58 7.0 17.0 0.00 0.00 0.00 40 1016.2
20260509100015 59 13.0 24.0 0.00 0.00 0.00 39 1015.8
20260509094514 58 8.0 16.0 0.00 0.00 0.00 40 1015.8
20260509093011 59 13.0 23.0 0.00 0.00 0.00 40 1015.8
20260509091512 59 15.0 23.0 0.00 0.00 0.00 40 1015.7
20260509090005 59 12.0 22.0 0.00 0.00 0.00 40 1015.6
20260509084504 59 13.0 21.0 0.00 0.00 0.00 40 1015.6
20260509083002 59 10.0 20.0 0.00 0.00 0.00 40 1015.5
20260509081701 59 11.0 22.0 0.00 0.00 0.00 40 1015.4
20260509074554 60 14.0 24.0 0.00 0.00 0.00 38 1015.3
20260509073050 60 17.0 27.0 0.00 0.00 0.00 37 1014.9
20260509071551 61 12.0 28.0 0.00 0.00 0.00 36 1014.6
20260509070051 61 14.0 24.0 0.00 0.00 0.00 36 1014.4
20260509064554 61 15.0 30.0 0.00 0.00 0.00 35 1014.3
20260509063042 61 14.0 29.0 0.00 0.00 0.00 35 1014.2
20260509061551 62 21.0 34.0 0.00 0.00 0.00 34 1013.7
20260509060041 62 18.0 37.0 0.00 0.00 0.00 33 1013.3
20260509054543 62 23.0 42.0 0.00 0.00 0.00 33 1013.3
20260509053038 62 6.0 19.0 0.00 0.00 0.00 33 1013.4
20260509051535 60 4.0 7.0 0.00 0.00 0.00 33 1013.2